This is the latest recevied weather packets stored in our database for station/object OE6ATD-13. If no packets are shown the sender has not sent any weather packets the latest 10 day(s).
| Time | Temp. | Humidity | Pressure | Rain* | Wind** | Luminosity | Snow |
|---|---|---|---|---|---|---|---|
| 1778137516 | 16.11° C | 71% | 1010.8 hPa | 0 mm | - | 88 W/m² | - |
| 1778136927 | 15.56° C | 72% | 1010.8 hPa | 0 mm | - | 69 W/m² | - |
| 1778136323 | 15.56° C | 73% | 1010.7 hPa | 0 mm | - | 80 W/m² | - |
| 1778135718 | 15.56° C | 74% | 1010.5 hPa | 0 mm | - | 72 W/m² | - |
| 1778135129 | 15° C | 76% | 1010.6 hPa | 0 mm | - | 69 W/m² | - |
| 1778134525 | 15° C | 77% | 1010.6 hPa | 0 mm | - | 51 W/m² | - |
| 1778133921 | 14.44° C | 76% | 1010.5 hPa | 0 mm | - | 47 W/m² | - |
| 1778133317 | 14.44° C | 77% | 1010.3 hPa | 0 mm | - | 42 W/m² | - |
| 1778132728 | 14.44° C | 77% | 1010.2 hPa | 0 mm | - | 46 W/m² | - |
| 1778132124 | 13.89° C | 77% | 1010.2 hPa | 0 mm | - | 35 W/m² | - |
| 1778131519 | 13.89° C | 77% | 1010.2 hPa | 0 mm | - | 31 W/m² | - |
| 1778130930 | 13.89° C | 77% | 1010.1 hPa | 0 mm | - | 20 W/m² | - |
| 1778130326 | 13.33° C | 78% | 1009.9 hPa | 0 mm | - | 18 W/m² | - |
| 1778129722 | 13.33° C | 77% | 1009.9 hPa | 0 mm | - | 16 W/m² | - |
| 1778129117 | 13.89° C | 76% | 1009.6 hPa | 0 mm | - | 12 W/m² | - |
| 1778128528 | 13.89° C | 76% | 1009.6 hPa | 0 mm | - | 11 W/m² | - |
| 1778127924 | 13.33° C | 76% | 1009.5 hPa | 0 mm | - | 10 W/m² | - |
| 1778127320 | 13.89° C | 76% | 1009.5 hPa | 0 mm | - | 9 W/m² | - |
| 1778126730 | 13.89° C | 76% | 1009.4 hPa | 0 mm | - | 5 W/m² | - |
| 1778126126 | 13.33° C | 77% | 1009.4 hPa | 0 mm | - | 1 W/m² | - |
| 1778125521 | 13.33° C | 77% | 1009.5 hPa | 0 mm | - | 0 W/m² | - |
| 1778124917 | 13.33° C | 76% | 1009.5 hPa | 0 mm | - | 0 W/m² | - |
| 1778124320 | 13.33° C | 75% | 1009.4 hPa | 0 mm | - | 0 W/m² | - |
| 1778123715 | 13.89° C | 74% | 1009.4 hPa | 0 mm | - | 0 W/m² | - |
| 1778123126 | 14.44° C | 72% | 1009.4 hPa | 0 mm | - | 0 W/m² | - |
* Rain latest hour (hover to see other rain measurements)
** Current wind speed in m/s (hover to see current wind gust speed)